Terminal Aerodrome Forecast
Issued by NWS

Home | Current Version | Previous Version | Text Only | Print | Product List | Glossary On
Versions: 1 2 3 4 5 6 7 8 9 10 11 12 13 14 15 16 17 18
000
FTUS44 KMAF 222333
TAFCNM
TAF
KCNM 222333Z 2300/2324 VRB06KT P6SM FEW080 BKN150
     FM230300 33008KT P6SM SCT090 BKN130
      TEMPO 2303/2307 VRB15G25KT 5SM TSRA BKN040CB=

USA.gov is the U.S. government's official web portal to all federal, state and local government web resources and services.